This demonstration page uses our WeatherBlox Daily Observations layout. Learn more.

38.89511, -77.03637

Hourly Observations for July 30, 2017

Temp ( °F °C ) Dew Point ( °F °C ) Humidity (%) Winds ( mph kmh ) Pressure ( in mb ) Visibility ( mi km ) Precip ( " mm )
12:52 am 00:52 Mostly Cloudy 69 20.6 54 12.2 59 59 N 10 17 29.91 1013 10 16.09344 0 0
1:52 am 01:52 Mostly Cloudy 67 19.4 54 12.2 63 63 NNW 8 13 29.91 1013 10 16.09344 0 0
2:52 am 02:52 Mostly Cloudy 66 18.9 55 12.8 68 68 N 10 17 29.91 1013 10 16.09344 0 0
3:52 am 03:52 Mostly Cloudy 65 18.3 56 13.3 73 73 N 8 13 29.91 1013 10 16.09344 0 0
4:52 am 04:52 Mostly Clear 65 18.3 55 12.8 70 70 NNW 9 15 29.94 1014 10 16.09344 0 0
5:52 am 05:52 Mostly Clear 63 17.2 54 12.2 73 73 NNW 7 11 29.97 1015 10 16.09344 0 0
6:52 am 06:52 Mostly Sunny 64 17.8 55 12.8 73 73 NNW 8 13 29.97 1015 10 16.09344 0 0
7:52 am 07:52 Mostly Sunny 67 19.4 56 13.3 68 68 N 8 13 30 1016 10 16.09344 0 0
8:52 am 08:52 Mostly Sunny 71 21.7 56 13.3 59 59 N 8 13 30.03 1017 10 16.09344 0 0
9:52 am 09:52 Mostly Sunny 74 23.3 57 13.9 56 56 N 7 11 30.03 1017 10 16.09344 0 0
10:52 am 10:52 Mostly Sunny 77 25 55 12.8 47 47 NNE 7 11 30.03 1017 10 16.09344 0 0
11:52 am 11:52 Mostly Sunny 78 25.6 55 12.8 45 45 N 3 6 30.03 1017 10 16.09344 0 0
12:52 pm 12:52 Mostly Sunny 80 26.7 54 12.2 41 41 N 12 19 30.03 1017 10 16.09344 0 0
1:52 pm 13:52 Mostly Sunny 81 27.2 54 12.2 39 39 NE 9 15 30.03 1017 10 16.09344 0 0
2:52 pm 14:52 Mostly Sunny 83 28.3 56 13.3 40 40 N 8 13 30.03 1017 10 16.09344 0 0
3:52 pm 15:52 Mostly Sunny 83 28.3 56 13.3 40 40 N 12 19 30.03 1017 10 16.09344 0 0
4:52 pm 16:52 Mostly Sunny 83 28.3 55 12.8 38 38 NNW 9 15 30.03 1017 10 16.09344 0 0
5:52 pm 17:52 Mostly Sunny 83 28.3 54 12.2 37 37 N 7 11 30.03 1017 10 16.09344 0 0
6:52 pm 18:52 Mostly Sunny 82 27.8 55 12.8 40 40 NNE 7 11 30.03 1017 10 16.09344 0 0
7:52 pm 19:52 Mostly Sunny 80 26.7 55 12.8 42 42 NNE 8 13 30.03 1017 10 16.09344 0 0
8:52 pm 20:52 Clear 76 24.4 56 13.3 50 50 N 6 9 30.06 1018 10 16.09344 0 0
9:52 pm 21:52 Clear 75 23.9 62 16.7 64 64 SSE 5 7 30.06 1018 10 16.09344 0 0
10:52 pm 22:52 Clear 74 23.3 60 15.6 62 62 Calm 30.06 1018 10 16.09344 0 0
11:52 pm 23:52 Clear 72 22.2 60 15.6 66 66 WSW 5 7 30.06 1018 10 16.09344 0 0

Powered by AerisWeather